,,,PA_Meas_PMT16A,,PR_Meas_QMR101_102,,RH_Meas_QMH101,,SR_Meas_QMS101,,TA_Meas_QMH101,,GenWind,,GenWind,
date,time,status,PA,status,PR,status,RH,status,SR,status,TA,status,DirAvg,status,SpdAvg,
2009-08-14, 00:00:04,VALID,1005.57,VALID,0,VALID,93.2173,VALID,0,VALID,24.0716,VALID,339,VALID,0,
2009-08-14, 00:01:04,VALID,1005.58,VALID,0,VALID,93.3165,VALID,0,VALID,24.0539,VALID,339,VALID,0,
2009-08-14, 00:02:04,VALID,1005.58,VALID,0,VALID,93.3699,VALID,0,VALID,24.0734,VALID,339,VALID,0,
2009-08-14, 00:03:04,VALID,1005.58,VALID,0,VALID,93.4538,VALID,0,VALID,24.0345,VALID,339,VALID,0,
2009-08-14, 00:04:04,VALID,1005.58,VALID,0,VALID,93.7208,VALID,0,VALID,24.0734,VALID,339,VALID,0,
2009-08-14, 00:05:04,VALID,1005.55,VALID,0,VALID,93.6826,VALID,0,VALID,24.0521,VALID,339,VALID,0,
2009-08-14, 00:06:04,VALID,1005.56,VALID,0,VALID,93.6369,VALID,0,VALID,24.0539,VALID,339,VALID,0,
2009-08-14, 00:07:04,VALID,1005.54,VALID,0,VALID,93.7437,VALID,0,VALID,24.0345,VALID,339,VALID,0,
2009-08-14, 00:08:04,VALID,1005.53,VALID,0,VALID,93.7742,VALID,0,VALID,24.0132,VALID,339,VALID,0,
2009-08-14, 00:09:04,VALID,1005.51,VALID,0,VALID,93.7589,VALID,0,VALID,24.0132,VALID,339,VALID,0,
2009-08-14, 00:10:04,VALID,1005.47,VALID,0,VALID,93.7666,VALID,0,VALID,24.015,VALID,339,VALID,0,
2009-08-14, 00:11:04,VALID,1005.46,VALID,0,VALID,93.8581,VALID,0,VALID,24.015,VALID,339,VALID,0,
2009-08-14, 00:12:04,VALID,1005.45,VALID,0,VALID,93.8657,VALID,0,VALID,24.015,VALID,339,VALID,0,
2009-08-14, 00:13:04,VALID,1005.46,VALID,0,VALID,93.8352,VALID,0,VALID,23.9742,VALID,339,VALID,0,
2009-08-14, 00:14:04,VALID,1005.48,VALID,0,VALID,93.8581,VALID,0,VALID,23.9742,VALID,339,VALID,0,
2009-08-14, 00:15:04,VALID,1005.47,VALID,0,VALID,93.942,VALID,0,VALID,23.9937,VALID,339,VALID,0,
2009-08-14, 00:16:04,VALID,1005.47,VALID,0,VALID,93.942,VALID,0,VALID,23.9742,VALID,339,VALID,0,
2009-08-14, 00:17:04,VALID,1005.47,VALID,0,VALID,93.9344,VALID,0,VALID,23.9955,VALID,339,VALID,0,
2009-08-14, 00:18:04,VALID,1005.49,VALID,0,VALID,93.9802,VALID,0,VALID,23.9548,VALID,339,VALID,0,
2009-08-14, 00:19:04,VALID,1005.49,VALID,0,VALID,93.9878,VALID,0,VALID,23.9566,VALID,339,VALID,0,
2009-08-14, 00:20:04,VALID,1005.47,VALID,0,VALID,94.0107,VALID,0,VALID,23.9566,VALID,339,VALID,0,
2009-08-14, 00:21:04,VALID,1005.49,VALID,0,VALID,94.0336,VALID,0,VALID,23.9159,VALID,339,VALID,0,
2009-08-14, 00:22:04,VALID,1005.48,VALID,0,VALID,94.0946,VALID,0,VALID,23.914,VALID,339,VALID,0,
2009-08-14, 00:23:04,VALID,1005.5,VALID,0,VALID,94.1251,VALID,0,VALID,23.9566,VALID,339,VALID,0,
2009-08-14, 00:24:04,VALID,1005.49,VALID,0,VALID,94.1022,VALID,0,VALID,23.9566,VALID,339,VALID,0,
2009-08-14, 00:25:04,VALID,1005.49,VALID,0,VALID,94.1328,VALID,0,VALID,23.9159,VALID,339,VALID,0,
2009-08-14, 00:26:04,VALID,1005.46,VALID,0,VALID,94.1709,VALID,0,VALID,23.9566,VALID,345,VALID,0.478906,
2009-08-14, 00:27:04,VALID,1005.45,VALID,0,VALID,94.2167,VALID,0,VALID,23.9353,VALID,345,VALID,0.421484,
2009-08-14, 00:28:04,VALID,1005.4,VALID,0,VALID,94.2167,VALID,0,VALID,23.9566,VALID,345,VALID,0.412891,
2009-08-14, 00:29:04,VALID,1005.43,VALID,0,VALID,94.2624,VALID,0,VALID,23.9548,VALID,345,VALID,0.435156,
2009-08-14, 00:30:04,VALID,1005.41,VALID,0,VALID,94.2777,VALID,0,VALID,23.9548,VALID,345,VALID,0.329297,
2009-08-14, 00:31:04,VALID,1005.39,VALID,0,VALID,94.2472,VALID,0,VALID,23.9566,VALID,345,VALID,0.427344,
2009-08-14, 00:32:04,VALID,1005.4,VALID,0,VALID,94.1938,VALID,0,VALID,23.9177,VALID,345,VALID,0.466016,
2009-08-14, 00:33:04,VALID,1005.39,VALID,0,VALID,94.2167,VALID,0,VALID,23.9159,VALID,345,VALID,0.369531,
2009-08-14, 00:34:04,VALID,1005.33,VALID,0,VALID,94.2777,VALID,0,VALID,23.9761,VALID,345,VALID,0.357031,
2009-08-14, 00:35:04,VALID,1005.32,VALID,0,VALID,94.2701,VALID,0,VALID,23.9371,VALID,345,VALID,0.371875,
2009-08-14, 00:36:04,VALID,1005.3,VALID,0,VALID,94.2701,VALID,0,VALID,23.9566,VALID,345,VALID,0.258984,
2009-08-14, 00:37:04,VALID,1005.29,VALID,0,VALID,94.2701,VALID,0,VALID,23.9371,VALID,345,VALID,0.402734,
2009-08-14, 00:38:04,VALID,1005.27,VALID,0,VALID,94.2396,VALID,0,VALID,23.9159,VALID,345,VALID,0.470313,
2009-08-14, 00:39:04,VALID,1005.28,VALID,0,VALID,94.2548,VALID,0.100563,VALID,23.9159,VALID,345,VALID,0.539844,
2009-08-14, 00:40:04,VALID,1005.29,VALID,0,VALID,94.2853,VALID,0,VALID,23.9371,VALID,355,VALID,0.395703,
2009-08-14, 00:41:04,VALID,1005.29,VALID,0,VALID,94.3311,VALID,0,VALID,23.9761,VALID,355,VALID,0.386328,
2009-08-14, 00:42:04,VALID,1005.27,VALID,0,VALID,94.3387,VALID,0,VALID,23.9548,VALID,355,VALID,0.330469,
2009-08-14, 00:43:04,VALID,1005.27,VALID,0,VALID,94.2777,VALID,0,VALID,23.9761,VALID,355,VALID,0.504297,
2009-08-14, 00:44:04,VALID,1005.25,VALID,0,VALID,94.2701,VALID,0,VALID,23.9548,VALID,2,VALID,0.608594,
2009-08-14, 00:45:04,VALID,1005.22,VALID,0,VALID,94.209,VALID,0,VALID,23.9566,VALID,2,VALID,0.527734,
2009-08-14, 00:46:04,VALID,1005.23,VALID,0,VALID,94.1862,VALID,0,VALID,23.9566,VALID,2,VALID,0.573047,
2009-08-14, 00:47:04,VALID,1005.18,VALID,0,VALID,94.1404,VALID,0,VALID,23.9566,VALID,2,VALID,0.445313,
2009-08-14, 00:48:04,VALID,1005.19,VALID,0,VALID,94.1404,VALID,0,VALID,23.9159,VALID,2,VALID,0.457422,
2009-08-14, 00:49:04,VALID,1005.2,VALID,0,VALID,94.148,VALID,0,VALID,23.9159,VALID,2,VALID,0.616406,
2009-08-14, 00:50:04,VALID,1005.22,VALID,0,VALID,94.1175,VALID,0,VALID,23.9177,VALID,4,VALID,0.564062,
2009-08-14, 00:51:04,VALID,1005.19,VALID,0,VALID,94.1099,VALID,0,VALID,23.9177,VALID,9,VALID,0,
2009-08-14, 00:52:04,VALID,1005.17,VALID,0,VALID,94.1328,VALID,0,VALID,23.9371,VALID,9,VALID,0,
2009-08-14, 00:53:04,VALID,1005.16,VALID,0,VALID,94.1556,VALID,0,VALID,23.9159,VALID,9,VALID,0,
2009-08-14, 00:54:04,VALID,1005.15,VALID,0,VALID,94.1709,VALID,0,VALID,23.9177,VALID,9,VALID,0,
2009-08-14, 00:55:04,VALID,1005.13,VALID,0,VALID,94.1175,VALID,0,VALID,23.8964,VALID,9,VALID,0,
2009-08-14, 00:56:04,VALID,1005.11,VALID,0,VALID,94.0794,VALID,0,VALID,23.9159,VALID,9,VALID,0,
2009-08-14, 00:57:04,VALID,1005.11,VALID,0,VALID,94.0565,VALID,0,VALID,23.8964,VALID,9,VALID,0,
2009-08-14, 00:58:04,VALID,1005.13,VALID,0,VALID,94.0336,VALID,0,VALID,23.9159,VALID,7,VALID,0,
2009-08-14, 00:59:04,VALID,1005.1,VALID,0,VALID,94.0412,VALID,0,VALID,23.9177,VALID,6,VALID,0,
2009-08-14, 01:00:04,VALID,1005.11,VALID,0,VALID,94.0717,VALID,0,VALID,23.9177,VALID,4,VALID,0,
2009-08-14, 01:01:04,VALID,1005.13,VALID,0,VALID,94.0794,VALID,0,VALID,23.9177,VALID,4,VALID,0,
2009-08-14, 01:02:04,VALID,1005.1,VALID,0,VALID,94.0641,VALID,0,VALID,23.8964,VALID,4,VALID,0,
2009-08-14, 01:03:04,VALID,1005.13,VALID,0,VALID,94.0565,VALID,0,VALID,23.8769,VALID,4,VALID,0,
2009-08-14, 01:04:04,VALID,1005.11,VALID,0,VALID,94.1328,VALID,0,VALID,23.9177,VALID,4,VALID,0,
2009-08-14, 01:05:04,VALID,1005.09,VALID,0,VALID,94.087,VALID,0,VALID,23.8769,VALID,4,VALID,0,
2009-08-14, 01:06:04,VALID,1005.09,VALID,0,VALID,94.0717,VALID,0,VALID,23.8769,VALID,4,VALID,0,
2009-08-14, 01:07:04,VALID,1005.07,VALID,0,VALID,94.148,VALID,0,VALID,23.8964,VALID,4,VALID,0,
2009-08-14, 01:08:04,VALID,1005.05,VALID,0,VALID,94.1328,VALID,0,VALID,23.8982,VALID,4,VALID,0,
2009-08-14, 01:09:04,VALID,1005.03,VALID,0,VALID,94.1099,VALID,0,VALID,23.8769,VALID,4,VALID,0,
2009-08-14, 01:10:04,VALID,1005,VALID,0,VALID,94.1633,VALID,0,VALID,23.8982,VALID,4,VALID,0,
2009-08-14, 01:11:04,VALID,1005.02,VALID,0,VALID,94.1633,VALID,0,VALID,23.8982,VALID,4,VALID,0,
2009-08-14, 01:12:04,VALID,1005.01,VALID,0,VALID,94.1862,VALID,0,VALID,23.8982,VALID,4,VALID,0,
2009-08-14, 01:13:04,VALID,1004.97,VALID,0,VALID,94.209,VALID,0,VALID,23.8769,VALID,4,VALID,0,
2009-08-14, 01:14:04,VALID,1004.98,VALID,0,VALID,94.1556,VALID,0,VALID,23.8769,VALID,4,VALID,0,
2009-08-14, 01:15:04,VALID,1004.96,VALID,0,VALID,94.1862,VALID,0,VALID,23.8982,VALID,4,VALID,0,
2009-08-14, 01:16:04,VALID,1004.93,VALID,0,VALID,94.1099,VALID,0,VALID,23.8769,VALID,4,VALID,0,
2009-08-14, 01:17:04,VALID,1004.96,VALID,0,VALID,94.0794,VALID,0,VALID,23.8575,VALID,4,VALID,0,
2009-08-14, 01:18:04,VALID,1004.97,VALID,0,VALID,94.0488,VALID,0,VALID,23.8185,VALID,4,VALID,0,
2009-08-14, 01:19:04,VALID,1004.96,VALID,0,VALID,94.0259,VALID,0,VALID,23.838,VALID,4,VALID,0,
2009-08-14, 01:20:04,VALID,1004.97,VALID,0,VALID,94.0717,VALID,0,VALID,23.838,VALID,4,VALID,0,
2009-08-14, 01:21:04,VALID,1004.96,VALID,0,VALID,94.1328,VALID,0,VALID,23.838,VALID,4,VALID,0,
2009-08-14, 01:22:04,VALID,1004.94,VALID,0,VALID,94.1556,VALID,0,VALID,23.838,VALID,4,VALID,0,
2009-08-14, 01:23:04,VALID,1004.92,VALID,0,VALID,94.1556,VALID,0,VALID,23.838,VALID,4,VALID,0,
2009-08-14, 01:24:04,VALID,1004.94,VALID,0,VALID,94.148,VALID,0,VALID,23.838,VALID,4,VALID,0,
2009-08-14, 01:25:04,VALID,1004.9,VALID,0,VALID,94.1556,VALID,0,VALID,23.838,VALID,4,VALID,0,
2009-08-14, 01:26:04,VALID,1004.89,VALID,0,VALID,94.1709,VALID,0,VALID,23.838,VALID,4,VALID,0,
2009-08-14, 01:27:04,VALID,1004.89,VALID,0,VALID,94.1633,VALID,0,VALID,23.8185,VALID,4,VALID,0,
2009-08-14, 01:28:04,VALID,1004.88,VALID,0,VALID,94.1251,VALID,0,VALID,23.8185,VALID,4,VALID,0,
2009-08-14, 01:29:04,VALID,1004.89,VALID,0,VALID,94.1099,VALID,0,VALID,23.7991,VALID,4,VALID,0,
2009-08-14, 01:30:04,VALID,1004.85,VALID,0,VALID,94.1099,VALID,0,VALID,23.7796,VALID,4,VALID,0,
2009-08-14, 01:31:04,VALID,1004.85,VALID,0,VALID,94.1938,VALID,0,VALID,23.7778,VALID,4,VALID,0,
2009-08-14, 01:32:04,VALID,1004.83,VALID,0,VALID,94.1938,VALID,0,VALID,23.8009,VALID,4,VALID,0,
2009-08-14, 01:33:04,VALID,1004.82,VALID,0,VALID,94.209,VALID,0,VALID,23.7814,VALID,4,VALID,0,
2009-08-14, 01:34:04,VALID,1004.8,VALID,0,VALID,94.209,VALID,0,VALID,23.7814,VALID,4,VALID,0,
2009-08-14, 01:35:04,VALID,1004.79,VALID,0,VALID,94.2319,VALID,0,VALID,23.7796,VALID,4,VALID,0,
2009-08-14, 01:36:04,VALID,1004.77,VALID,0,VALID,94.2853,VALID,0,VALID,23.7601,VALID,4,VALID,0,
2009-08-14, 01:37:04,VALID,1004.77,VALID,0,VALID,94.2853,VALID,0,VALID,23.7601,VALID,4,VALID,0,
2009-08-14, 01:38:04,VALID,1004.74,VALID,0,VALID,94.3235,VALID,0,VALID,23.7814,VALID,4,VALID,0,
2009-08-14, 01:39:04,VALID,1004.74,VALID,0,VALID,94.354,VALID,0,VALID,23.7814,VALID,4,VALID,0,
2009-08-14, 01:40:04,VALID,1004.73,VALID,0,VALID,94.3235,VALID,0,VALID,23.7407,VALID,4,VALID,0,
2009-08-14, 01:41:04,VALID,1004.73,VALID,0,VALID,94.3082,VALID,0,VALID,23.7212,VALID,4,VALID,0,
2009-08-14, 01:42:04,VALID,1004.72,VALID,0,VALID,94.2777,VALID,0,VALID,23.7212,VALID,4,VALID,0,
2009-08-14, 01:43:04,VALID,1004.72,VALID,0,VALID,94.3235,VALID,0,VALID,23.7425,VALID,4,VALID,0,
2009-08-14, 01:44:04,VALID,1004.71,VALID,0,VALID,94.3006,VALID,0,VALID,23.7017,VALID,4,VALID,0,
2009-08-14, 01:45:04,VALID,1004.71,VALID,0,VALID,94.3006,VALID,0,VALID,23.7017,VALID,4,VALID,0,
2009-08-14, 01:46:04,VALID,1004.73,VALID,0,VALID,94.2853,VALID,0,VALID,23.7035,VALID,4,VALID,0,
2009-08-14, 01:47:04,VALID,1004.76,VALID,0,VALID,94.293,VALID,0,VALID,23.6841,VALID,4,VALID,0,
2009-08-14, 01:48:04,VALID,1004.76,VALID,0,VALID,94.3464,VALID,0,VALID,23.6628,VALID,4,VALID,0,
2009-08-14, 01:49:04,VALID,1004.75,VALID,0,VALID,94.4227,VALID,0,VALID,23.7017,VALID,4,VALID,0,
2009-08-14, 01:50:04,VALID,1004.75,VALID,0,VALID,94.4837,VALID,0,VALID,23.7212,VALID,4,VALID,0,
2009-08-14, 01:51:04,VALID,1004.74,VALID,0,VALID,94.5752,VALID,0,VALID,23.8009,VALID,4,VALID,0,
2009-08-14, 01:52:04,VALID,1004.73,VALID,0,VALID,94.6286,VALID,0,VALID,23.838,VALID,4,VALID,0,
2009-08-14, 01:53:04,VALID,1004.73,VALID,0,VALID,94.6591,VALID,0,VALID,23.8575,VALID,4,VALID,0,
2009-08-14, 01:54:04,VALID,1004.72,VALID,0,VALID,94.6363,VALID,0,VALID,23.8982,VALID,4,VALID,0,
2009-08-14, 01:55:04,VALID,1004.74,VALID,0,VALID,94.621,VALID,0,VALID,23.8964,VALID,4,VALID,0,
2009-08-14, 01:56:04,VALID,1004.74,VALID,0,VALID,94.5752,VALID,0,VALID,23.8964,VALID,4,VALID,0,
2009-08-14, 01:57:04,VALID,1004.71,VALID,0,VALID,94.5218,VALID,0,VALID,23.9159,VALID,4,VALID,0,
2009-08-14, 01:58:04,VALID,1004.72,VALID,0,VALID,94.4608,VALID,0,VALID,23.8769,VALID,4,VALID,0,
2009-08-14, 01:59:04,VALID,1004.72,VALID,0,VALID,94.3845,VALID,0,VALID,23.8787,VALID,4,VALID,0,
2009-08-14, 02:00:04,VALID,1004.7,VALID,0,VALID,94.3464,VALID,0,VALID,23.8575,VALID,4,VALID,0,
2009-08-14, 02:01:04,VALID,1004.72,VALID,0,VALID,94.3006,VALID,0,VALID,23.838,VALID,4,VALID,0,
2009-08-14, 02:02:04,VALID,1004.72,VALID,0,VALID,94.293,VALID,0,VALID,23.838,VALID,4,VALID,0,
2009-08-14, 02:03:04,VALID,1004.7,VALID,0,VALID,94.3616,VALID,0,VALID,23.8769,VALID,4,VALID,0,
2009-08-14, 02:04:04,VALID,1004.7,VALID,0,VALID,94.3692,VALID,0,VALID,23.8787,VALID,4,VALID,0,
2009-08-14, 02:05:04,VALID,1004.73,VALID,0,VALID,94.3998,VALID,0,VALID,23.8769,VALID,4,VALID,0,
2009-08-14, 02:06:04,VALID,1004.7,VALID,0,VALID,94.415,VALID,0,VALID,23.8769,VALID,4,VALID,0,
2009-08-14, 02:07:04,VALID,1004.72,VALID,0,VALID,94.3998,VALID,0,VALID,23.8769,VALID,4,VALID,0,
2009-08-14, 02:08:04,VALID,1004.68,VALID,0,VALID,94.3921,VALID,0,VALID,23.8575,VALID,4,VALID,0,
2009-08-14, 02:09:04,VALID,1004.65,VALID,0,VALID,94.3921,VALID,0,VALID,23.8575,VALID,4,VALID,0,
2009-08-14, 02:10:04,VALID,1004.63,VALID,0,VALID,94.4303,VALID,0,VALID,23.8769,VALID,4,VALID,0,
2009-08-14, 02:11:04,VALID,1004.61,VALID,0,VALID,94.5066,VALID,0,VALID,23.8946,VALID,4,VALID,0,
2009-08-14, 02:12:04,VALID,1004.64,VALID,0,VALID,94.5523,VALID,0,VALID,23.9371,VALID,4,VALID,0,
2009-08-14, 02:13:04,VALID,1004.62,VALID,0,VALID,94.5371,VALID,0,VALID,23.9159,VALID,4,VALID,0,
2009-08-14, 02:14:04,VALID,1004.62,VALID,0,VALID,94.4837,VALID,0,VALID,23.9353,VALID,4,VALID,0,
2009-08-14, 02:15:04,VALID,1004.64,VALID,0,VALID,94.4227,VALID,0,VALID,23.8964,VALID,4,VALID,0,
2009-08-14, 02:16:04,VALID,1004.61,VALID,0,VALID,94.354,VALID,0,VALID,23.8982,VALID,4,VALID,0,
2009-08-14, 02:17:04,VALID,1004.61,VALID,0,VALID,94.3235,VALID,0,VALID,23.8575,VALID,4,VALID,0,
2009-08-14, 02:18:04,VALID,1004.61,VALID,0,VALID,94.3158,VALID,0,VALID,23.8575,VALID,4,VALID,0,
2009-08-14, 02:19:04,VALID,1004.6,VALID,0,VALID,94.3082,VALID,0,VALID,23.838,VALID,4,VALID,0,
2009-08-14, 02:20:04,VALID,1004.6,VALID,0,VALID,94.3235,VALID,0,VALID,23.8167,VALID,4,VALID,0,
2009-08-14, 02:21:04,VALID,1004.62,VALID,0,VALID,94.3464,VALID,0,VALID,23.838,VALID,4,VALID,0,
2009-08-14, 02:22:04,VALID,1004.57,VALID,0,VALID,94.354,VALID,0,VALID,23.838,VALID,4,VALID,0,
2009-08-14, 02:23:04,VALID,1004.58,VALID,0,VALID,94.3769,VALID,0,VALID,23.8185,VALID,4,VALID,0,
2009-08-14, 02:24:04,VALID,1004.58,VALID,0,VALID,94.3921,VALID,0,VALID,23.8398,VALID,4,VALID,0,
2009-08-14, 02:25:04,VALID,1004.56,VALID,0,VALID,94.4227,VALID,0,VALID,23.838,VALID,4,VALID,0,
2009-08-14, 02:26:04,VALID,1004.55,VALID,0,VALID,94.4379,VALID,0,VALID,23.8593,VALID,4,VALID,0,
2009-08-14, 02:27:04,VALID,1004.55,VALID,0,VALID,94.4227,VALID,0,VALID,23.8398,VALID,4,VALID,0,
2009-08-14, 02:28:04,VALID,1004.51,VALID,0,VALID,94.415,VALID,0,VALID,23.7796,VALID,4,VALID,0,
2009-08-14, 02:29:04,VALID,1004.5,VALID,0,VALID,94.3692,VALID,0,VALID,23.7601,VALID,4,VALID,0,
2009-08-14, 02:30:04,VALID,1004.49,VALID,0,VALID,94.3692,VALID,0,VALID,23.7601,VALID,4,VALID,0,
2009-08-14, 02:31:04,VALID,1004.49,VALID,0,VALID,94.3692,VALID,0,VALID,23.7425,VALID,4,VALID,0,
2009-08-14, 02:32:04,VALID,1004.51,VALID,0,VALID,94.4074,VALID,0,VALID,23.7407,VALID,4,VALID,0,
2009-08-14, 02:33:04,VALID,1004.48,VALID,0,VALID,94.4227,VALID,0,VALID,23.7212,VALID,4,VALID,0,
2009-08-14, 02:34:04,VALID,1004.48,VALID,0,VALID,94.4303,VALID,0,VALID,23.7425,VALID,4,VALID,0,
2009-08-14, 02:35:04,VALID,1004.48,VALID,0,VALID,94.3921,VALID,0,VALID,23.6823,VALID,4,VALID,0,
2009-08-14, 02:36:04,VALID,1004.47,VALID,0,VALID,94.415,VALID,0,VALID,23.6823,VALID,4,VALID,0,
2009-08-14, 02:37:04,VALID,1004.47,VALID,0,VALID,94.4379,VALID,0,VALID,23.6628,VALID,4,VALID,0,
2009-08-14, 02:38:04,VALID,1004.48,VALID,0,VALID,94.4761,VALID,0,VALID,23.6628,VALID,4,VALID,0,
2009-08-14, 02:39:04,VALID,1004.49,VALID,0,VALID,94.5142,VALID,0,VALID,23.6628,VALID,4,VALID,0,
2009-08-14, 02:40:04,VALID,1004.5,VALID,0,VALID,94.5523,VALID,0,VALID,23.6434,VALID,4,VALID,0,
2009-08-14, 02:41:04,VALID,1004.49,VALID,0,VALID,94.5447,VALID,0,VALID,23.6044,VALID,4,VALID,0,
2009-08-14, 02:42:04,VALID,1004.47,VALID,0,VALID,94.621,VALID,0,VALID,23.6434,VALID,3,VALID,0,
2009-08-14, 02:43:04,VALID,1004.46,VALID,0,VALID,94.682,VALID,0,VALID,23.6434,VALID,3,VALID,0,
2009-08-14, 02:44:04,VALID,1004.46,VALID,0,VALID,94.7202,VALID,0,VALID,23.6452,VALID,355,VALID,0,
2009-08-14, 02:45:04,VALID,1004.45,VALID,0,VALID,94.7278,VALID,0,VALID,23.6434,VALID,355,VALID,0,
2009-08-14, 02:46:04,VALID,1004.41,VALID,0,VALID,94.7812,VALID,0,VALID,23.6416,VALID,355,VALID,0,
2009-08-14, 02:47:04,VALID,1004.41,VALID,0,VALID,94.7888,VALID,0,VALID,23.6823,VALID,355,VALID,0,
2009-08-14, 02:48:04,VALID,1004.4,VALID,0,VALID,94.8194,VALID,0,VALID,23.6823,VALID,355,VALID,0,
2009-08-14, 02:49:04,VALID,1004.37,VALID,0,VALID,94.827,VALID,0,VALID,23.6823,VALID,355,VALID,0,
2009-08-14, 02:50:04,VALID,1004.38,VALID,0,VALID,94.8041,VALID,0,VALID,23.6628,VALID,355,VALID,0,
2009-08-14, 02:51:04,VALID,1004.36,VALID,0,VALID,94.7431,VALID,0,VALID,23.6239,VALID,355,VALID,0,
2009-08-14, 02:52:04,VALID,1004.32,VALID,0,VALID,94.7507,VALID,0,VALID,23.6434,VALID,357,VALID,0,
2009-08-14, 02:53:04,VALID,1004.33,VALID,0,VALID,94.7431,VALID,0,VALID,23.6434,VALID,357,VALID,0,
2009-08-14, 02:54:04,VALID,1004.29,VALID,0,VALID,94.7354,VALID,0,VALID,23.6239,VALID,357,VALID,0,
2009-08-14, 02:55:04,VALID,1004.31,VALID,0,VALID,94.7278,VALID,0,VALID,23.6239,VALID,357,VALID,0,
2009-08-14, 02:56:04,VALID,1004.27,VALID,0,VALID,94.6897,VALID,0,VALID,23.585,VALID,357,VALID,0,
2009-08-14, 02:57:04,VALID,1004.26,VALID,0,VALID,94.6515,VALID,0,VALID,23.5655,VALID,357,VALID,0,
2009-08-14, 02:58:04,VALID,1004.28,VALID,0,VALID,94.6286,VALID,0,VALID,23.546,VALID,357,VALID,0,
2009-08-14, 02:59:04,VALID,1004.29,VALID,0,VALID,94.6744,VALID,0,VALID,23.585,VALID,357,VALID,0,
2009-08-14, 03:00:04,VALID,1004.26,VALID,0,VALID,94.6973,VALID,0,VALID,23.6062,VALID,357,VALID,0,
2009-08-14, 03:01:04,VALID,1004.26,VALID,0,VALID,94.682,VALID,0,VALID,23.585,VALID,357,VALID,0,
2009-08-14, 03:02:04,VALID,1004.27,VALID,0,VALID,94.6973,VALID,0,VALID,23.6044,VALID,357,VALID,0,
2009-08-14, 03:03:04,VALID,1004.25,VALID,0,VALID,94.6744,VALID,0,VALID,23.585,VALID,357,VALID,0,
2009-08-14, 03:04:04,VALID,1004.23,VALID,0,VALID,94.6515,VALID,0,VALID,23.5655,VALID,357,VALID,0,
2009-08-14, 03:05:04,VALID,1004.25,VALID,0,VALID,94.5752,VALID,0,VALID,23.5673,VALID,357,VALID,0,
2009-08-14, 03:06:04,VALID,1004.23,VALID,0,VALID,94.5829,VALID,0,VALID,23.546,VALID,357,VALID,0,
2009-08-14, 03:07:04,VALID,1004.24,VALID,0,VALID,94.5981,VALID,0,VALID,23.5071,VALID,357,VALID,0,
2009-08-14, 03:08:04,VALID,1004.21,VALID,0,VALID,94.5752,VALID,0,VALID,23.4877,VALID,357,VALID,0,
2009-08-14, 03:09:04,VALID,1004.22,VALID,0,VALID,94.5829,VALID,0,VALID,23.5089,VALID,357,VALID,0,
2009-08-14, 03:10:04,VALID,1004.21,VALID,0,VALID,94.5981,VALID,0,VALID,23.4682,VALID,13,VALID,0,
2009-08-14, 03:11:04,VALID,1004.18,VALID,0,VALID,94.5829,VALID,0,VALID,23.4682,VALID,13,VALID,0,
2009-08-14, 03:12:04,VALID,1004.18,VALID,0,VALID,94.5905,VALID,0,VALID,23.4487,VALID,13,VALID,0,
2009-08-14, 03:13:04,VALID,1004.16,VALID,0,VALID,94.5981,VALID,0,VALID,23.4293,VALID,13,VALID,0,
2009-08-14, 03:14:04,VALID,1004.17,VALID,0,VALID,94.6363,VALID,0,VALID,23.47,VALID,13,VALID,0,
2009-08-14, 03:15:04,VALID,1004.19,VALID,0,VALID,94.6668,VALID,0,VALID,23.4505,VALID,13,VALID,0,
2009-08-14, 03:16:04,VALID,1004.17,VALID,0,VALID,94.682,VALID,0,VALID,23.47,VALID,13,VALID,0,
2009-08-14, 03:17:04,VALID,1004.14,VALID,0,VALID,94.7278,VALID,0,VALID,23.4487,VALID,13,VALID,0,
2009-08-14, 03:18:04,VALID,1004.15,VALID,0,VALID,94.7431,VALID,0,VALID,23.47,VALID,13,VALID,0,
2009-08-14, 03:19:04,VALID,1004.14,VALID,0,VALID,94.7888,VALID,0,VALID,23.5089,VALID,13,VALID,0,
2009-08-14, 03:20:04,VALID,1004.12,VALID,0,VALID,94.8117,VALID,0,VALID,23.5071,VALID,13,VALID,0,
2009-08-14, 03:21:04,VALID,1004.11,VALID,0,VALID,94.827,VALID,0,VALID,23.4877,VALID,13,VALID,0,
2009-08-14, 03:22:04,VALID,1004.12,VALID,0,VALID,94.7888,VALID,0,VALID,23.4682,VALID,13,VALID,0,
2009-08-14, 03:23:04,VALID,1004.12,VALID,0,VALID,94.8041,VALID,0,VALID,23.4682,VALID,13,VALID,0,
2009-08-14, 03:24:04,VALID,1004.11,VALID,0,VALID,94.7888,VALID,0,VALID,23.4682,VALID,13,VALID,0,
2009-08-14, 03:25:04,VALID,1004.08,VALID,0,VALID,94.7888,VALID,0,VALID,23.4894,VALID,13,VALID,0,
2009-08-14, 03:26:04,VALID,1004.1,VALID,0,VALID,94.8117,VALID,0,VALID,23.4894,VALID,13,VALID,0,
2009-08-14, 03:27:04,VALID,1004.08,VALID,0,VALID,94.8194,VALID,0,VALID,23.4487,VALID,13,VALID,0,
2009-08-14, 03:28:04,VALID,1004.1,VALID,0,VALID,94.766,VALID,0,VALID,23.4293,VALID,13,VALID,0,
2009-08-14, 03:29:04,VALID,1004.1,VALID,0,VALID,94.7965,VALID,0,VALID,23.4293,VALID,13,VALID,0,
2009-08-14, 03:30:04,VALID,1004.08,VALID,0,VALID,94.8041,VALID,0,VALID,23.4505,VALID,13,VALID,0,
2009-08-14, 03:31:04,VALID,1004.07,VALID,0,VALID,94.7736,VALID,0,VALID,23.4505,VALID,13,VALID,0,
2009-08-14, 03:32:04,VALID,1004.11,VALID,0,VALID,94.766,VALID,0,VALID,23.3904,VALID,13,VALID,0,
2009-08-14, 03:33:04,VALID,1004.09,VALID,0,VALID,94.7736,VALID,0,VALID,23.3921,VALID,13,VALID,0,
2009-08-14, 03:34:04,VALID,1004.11,VALID,0,VALID,94.7507,VALID,0,VALID,23.3514,VALID,13,VALID,0,
2009-08-14, 03:35:04,VALID,1004.08,VALID,0,VALID,94.766,VALID,0,VALID,23.3514,VALID,13,VALID,0,
2009-08-14, 03:36:04,VALID,1004.07,VALID,0,VALID,94.7736,VALID,0,VALID,23.332,VALID,13,VALID,0,
2009-08-14, 03:37:04,VALID,1004.05,VALID,0,VALID,94.8041,VALID,0,VALID,23.3514,VALID,13,VALID,0,
2009-08-14, 03:38:04,VALID,1004.08,VALID,0,VALID,94.9262,VALID,0,VALID,23.4505,VALID,13,VALID,0,
2009-08-14, 03:39:04,VALID,1004.08,VALID,0,VALID,95.0024,VALID,0,VALID,23.4682,VALID,13,VALID,0,
2009-08-14, 03:40:04,VALID,1004.11,VALID,0,VALID,95.0253,VALID,0,VALID,23.4894,VALID,13,VALID,0,
2009-08-14, 03:41:04,VALID,1004.1,VALID,0,VALID,95.0711,VALID,0,VALID,23.5266,VALID,13,VALID,0,
2009-08-14, 03:42:04,VALID,1004.12,VALID,0,VALID,95.0558,VALID,0,VALID,23.5284,VALID,13,VALID,0,
2009-08-14, 03:43:04,VALID,1004.14,VALID,0,VALID,95.033,VALID,0,VALID,23.4682,VALID,4,VALID,0,
2009-08-14, 03:44:04,VALID,1004.14,VALID,0,VALID,95.0101,VALID,0,VALID,23.4682,VALID,4,VALID,0,
2009-08-14, 03:45:04,VALID,1004.12,VALID,0,VALID,94.9948,VALID,0,VALID,23.4487,VALID,4,VALID,0,
2009-08-14, 03:46:04,VALID,1004.11,VALID,0,VALID,94.9719,VALID,0,VALID,23.47,VALID,4,VALID,0,
2009-08-14, 03:47:04,VALID,1004.1,VALID,0,VALID,94.9643,VALID,0,VALID,23.4487,VALID,4,VALID,0,
2009-08-14, 03:48:04,VALID,1004.11,VALID,0,VALID,94.949,VALID,0,VALID,23.4098,VALID,4,VALID,0,
2009-08-14, 03:49:04,VALID,1004.09,VALID,0,VALID,94.9414,VALID,0,VALID,23.4116,VALID,4,VALID,0,
2009-08-14, 03:50:04,VALID,1004.08,VALID,0,VALID,94.9185,VALID,0,VALID,23.4098,VALID,3,VALID,0,
2009-08-14, 03:51:04,VALID,1004.08,VALID,0,VALID,94.9338,VALID,0,VALID,23.4311,VALID,4,VALID,0,
2009-08-14, 03:52:04,VALID,1004.09,VALID,0,VALID,94.9567,VALID,0,VALID,23.3904,VALID,4,VALID,0,
2009-08-14, 03:53:04,VALID,1004.06,VALID,0,VALID,94.9567,VALID,0,VALID,23.4098,VALID,4,VALID,0,
2009-08-14, 03:54:04,VALID,1004.12,VALID,0,VALID,94.9796,VALID,0,VALID,23.4098,VALID,4,VALID,0,
2009-08-14, 03:55:04,VALID,1004.08,VALID,0,VALID,94.9719,VALID,0,VALID,23.3886,VALID,4,VALID,0,
2009-08-14, 03:56:04,VALID,1004.07,VALID,0,VALID,94.9948,VALID,0,VALID,23.4098,VALID,3,VALID,0,
2009-08-14, 03:57:04,VALID,1004.11,VALID,0,VALID,94.9948,VALID,0,VALID,23.3904,VALID,3,VALID,0,
2009-08-14, 03:58:04,VALID,1004.1,VALID,0,VALID,95.0101,VALID,0,VALID,23.4098,VALID,3,VALID,0,
2009-08-14, 03:59:04,VALID,1004.13,VALID,0,VALID,94.9948,VALID,0,VALID,23.4098,VALID,3,VALID,0,
2009-08-14, 04:00:04,VALID,1004.14,VALID,0,VALID,95.0024,VALID,0,VALID,23.3904,VALID,2,VALID,0,
2009-08-14, 04:01:04,VALID,1004.17,VALID,0,VALID,95.0101,VALID,0,VALID,23.4098,VALID,346,VALID,0.654297,